Hourly Data Report for September 28, 2017

All times are specified in Local Standard Time (LST). Add 1 hour to adjust for Daylight Saving Time where and when it is observed.

BAS CARAQUET
NEW BRUNSWICK

47°48'08.000" N
64°50'00.000" W
5.00 m
8100467
71598
WXS

Download Data

Hourly Data (September 2017)
Hourly Data Report for September 28, 2017
Temp Definition
°C
Dew Point Temp Definition
°C
Rel Hum Definition
%
Wind Dir Definition
10's deg

Wind Spd Definition
km/h
Visibility Definition
km
Stn Press Definition
kPa
Hmdx Definition


Wind Chill Definition


Weather Definition


TIME
00:00 13.7 13.6 100 20 10   100.11     LegendNANA
01:00 14.8 14.7 100 16 14   99.81     LegendNANA
02:00 15.5 15.2 99 21 7   99.98     LegendNANA
03:00 16.2 15.7 97 24 9   99.99     LegendNANA
04:00 16.8 16.0 95 21 14   99.95     LegendNANA
05:00 16.6 15.6 94 21 13   99.90     LegendNANA
06:00 16.4 15.7 95 23 13   99.87     LegendNANA
07:00 15.6 12.3 81 27 20   99.89     LegendNANA
08:00 15.0 11.0 77 27 21   99.90     LegendNANA
09:00 14.4 10.6 78 28 19   99.94     LegendNANA
10:00 14.8 10.5 75 28 23   99.98     LegendNANA
11:00 15.1 10.2 73 27 18   100.01     LegendNANA
12:00 15.4 9.5 68 27 18   100.07     LegendNANA
13:00 16.5 9.4 63 27 23   100.10     LegendNANA
14:00 16.1 9.1 63 28 25   100.11     LegendNANA
15:00 15.2 8.3 64 28 23   100.12     LegendNANA
16:00 14.4 7.8 65 29 23   100.17     LegendNANA
17:00 13.7 7.4 66 28 27   100.23     LegendNANA
18:00 12.8 6.0 63 29 26   100.25     LegendNANA
19:00 12.5 5.5 63 30 30   100.26     LegendNANA
20:00 11.9 6.0 67 30 26   100.29     LegendNANA
21:00 11.6 6.0 68 30 23   100.29     LegendNANA
22:00 11.1 4.8 65 29 28   100.29     LegendNANA
23:00 10.7 5.3 69 29 24   100.30     LegendNANA

Notes on Data Quality.

Legend

  • E = Estimated
  • M = Missing
  • NA = Not Available
  • ‡ = Partner data that is not subject to review by the National Climate Archives
Date modified: